Weather History for New Ulm, MN

Change the Weather History Date:

Sunday, April 13, 2014

  Actual Average Record
Temperature  
Mean Temperature 40 °F -  
Max Temperature 48 °F 56 °F 84 °F (2006)
Min Temperature 32 °F 36 °F 15 °F (1950)
Degree Days  
Heating Degree Days 25    
Moisture  
Dew Point 34 °F    
Average Humidity 81    
Maximum Humidity 100    
Minimum Humidity 60    
Precipitation  
Precipitation 0.00 in - - ()
Sea Level Pressure  
Sea Level Pressure 29.85 in    
Wind  
Wind Speed 11 mph (North)    
Max Wind Speed 23 mph    
Max Gust Speed 30 mph    
Visibility 10 miles    
Events      
Averages and records for this station are not official NWS values.
T = Trace of Precipitation, MM = Missing Value Source: NWS Daily Summary

Daily Weather History Graph

Daily Weather History Graph

Search for Another Location

Airport:

Trip Planner

Search our weather history database for the weather conditions in past years. The results will help you decide how hot, cold, wet, or windy it might be!

Date:

Astronomy

Apr. 13, 2014 Rise Set
Actual Time 6:37 AM CDT 8:00 PM CDT
Civil Twilight 6:07 AM CDT 8:30 PM CDT
Nautical Twilight 5:31 AM CDT 9:06 PM CDT
Astronomical Twilight 4:52 AM CDT 9:45 PM CDT
Moon 6:36 PM CDT (4/13) 5:40 AM CDT (4/13)
Length of Visible Light 14h 22m
Length of Day
13h 22m
Waxing Gibbous, 97% of the Moon is Illuminated
Apr 13
Waxing Gibbous
Apr 15
Full
Apr 22
Last Quarter
Apr 29
New
May 6
First Quarter

Hourly Weather History & Observations

Time (CDT) Temp. Windchill Dew Point Humidity Pressure Visibility Wind Dir Wind Speed Gust Speed Precip Events Conditions
12:13 AM 48.2 °F - 44.6 °F 87% 29.71 in 10.0 mi NE 10.4 mph - N/A   Clear
12:33 AM 48.2 °F - 44.6 °F 87% 29.74 in 10.0 mi ENE 8.1 mph - N/A   Clear
12:53 AM 46.4 °F 41.9 °F 44.6 °F 93% 29.74 in 10.0 mi ENE 9.2 mph - N/A   Clear
1:13 AM 46.4 °F 41.9 °F 44.6 °F 93% 29.75 in 10.0 mi NE 9.2 mph - N/A   Clear
1:33 AM 46.4 °F 41.1 °F 44.6 °F 93% 29.75 in 10.0 mi NE 11.5 mph - N/A   Clear
1:53 AM 46.4 °F 42.4 °F 44.6 °F 93% 29.76 in 10.0 mi NE 8.1 mph - N/A   Clear
2:13 AM 46.4 °F 42.9 °F 44.6 °F 93% 29.77 in 10.0 mi NNE 6.9 mph - N/A   Clear
2:33 AM 46.4 °F 42.9 °F 44.6 °F 93% 29.77 in 10.0 mi NNE 6.9 mph - N/A   Clear
2:53 AM 46.4 °F 42.9 °F 44.6 °F 93% 29.78 in 10.0 mi NNE 6.9 mph - N/A   Clear
3:13 AM 44.6 °F 41.4 °F 42.8 °F 93% 29.79 in 10.0 mi NNE 5.8 mph - N/A   Clear
3:33 AM 44.6 °F 39.7 °F 42.8 °F 93% 29.79 in 10.0 mi North 9.2 mph - N/A   Clear
3:53 AM 44.6 °F 40.2 °F 42.8 °F 93% 29.79 in 10.0 mi North 8.1 mph - N/A   Clear
4:12 AM 44.6 °F 40.2 °F 42.8 °F 93% 29.79 in 10.0 mi North 8.1 mph - N/A   Scattered Clouds
4:33 AM 42.8 °F 39.3 °F 42.8 °F 100% 29.80 in 10.0 mi North 5.8 mph - N/A   Scattered Clouds
4:53 AM 42.8 °F 37.0 °F 41.0 °F 93% 29.80 in 10.0 mi North 10.4 mph - N/A   Clear
5:12 AM 42.8 °F 37.0 °F 41.0 °F 93% 29.81 in 10.0 mi NNW 10.4 mph - N/A   Clear
5:33 AM 42.8 °F 37.0 °F 42.8 °F 100% 29.81 in 10.0 mi North 10.4 mph 18.4 mph N/A   Scattered Clouds
5:53 AM 42.8 °F 38.0 °F 42.8 °F 100% 29.80 in 10.0 mi North 8.1 mph 18.4 mph N/A   Scattered Clouds
6:12 AM 42.8 °F 37.0 °F 42.8 °F 100% 29.81 in 10.0 mi North 10.4 mph 17.3 mph N/A   Scattered Clouds
6:33 AM 42.8 °F 35.8 °F 41.0 °F 93% 29.83 in 10.0 mi NNW 13.8 mph 20.7 mph N/A   Mostly Cloudy
6:53 AM 42.8 °F 35.4 °F 41.0 °F 93% 29.83 in 10.0 mi NNW 15.0 mph 19.6 mph N/A   Scattered Clouds
7:13 AM 42.8 °F 36.6 °F 41.0 °F 93% 29.84 in 10.0 mi NNW 11.5 mph - N/A   Scattered Clouds
7:33 AM 42.8 °F 35.8 °F 41.0 °F 93% 29.84 in 10.0 mi NNW 13.8 mph - N/A   Scattered Clouds
7:52 AM 42.8 °F 35.8 °F 41.0 °F 93% 29.84 in 10.0 mi North 13.8 mph 19.6 mph N/A   Mostly Cloudy
8:13 AM 42.8 °F 35.4 °F 41.0 °F 93% 29.84 in 10.0 mi North 15.0 mph 23.0 mph N/A   Mostly Cloudy
8:32 AM 42.8 °F 34.3 °F 39.2 °F 87% 29.85 in 10.0 mi NNW 19.6 mph - N/A   Mostly Cloudy
8:53 AM 39.2 °F 31.6 °F 37.4 °F 93% 29.84 in 10.0 mi North 12.7 mph 23.0 mph N/A   Overcast
9:13 AM 39.2 °F 30.8 °F 37.4 °F 93% 29.84 in 10.0 mi North 15.0 mph 24.2 mph N/A   Mostly Cloudy
9:53 AM 37.4 °F 26.4 °F 33.8 °F 87% 29.82 in 10.0 mi NNW 23.0 mph 27.6 mph N/A   Scattered Clouds
10:13 AM 37.4 °F 27.8 °F 33.8 °F 87% 29.83 in 10.0 mi North 17.3 mph 26.5 mph N/A   Clear
10:32 AM 37.4 °F 27.8 °F 33.8 °F 87% 29.83 in 10.0 mi North 17.3 mph 29.9 mph N/A   Clear
10:53 AM 37.4 °F 29.8 °F 33.8 °F 87% 29.84 in 10.0 mi North 11.5 mph 25.3 mph N/A   Clear
11:13 AM 37.4 °F 29.8 °F 33.8 °F 87% 29.88 in 10.0 mi North 11.5 mph 17.3 mph N/A   Scattered Clouds
11:32 AM 35.6 °F 27.5 °F 33.8 °F 93% 29.89 in 10.0 mi North 11.5 mph 20.7 mph N/A   Overcast
11:53 AM 35.6 °F 25.2 °F 33.8 °F 93% 29.89 in 10.0 mi NNW 18.4 mph 25.3 mph N/A   Overcast
12:13 PM 35.6 °F 26.2 °F 32.0 °F 87% 29.88 in 10.0 mi North 15.0 mph 21.9 mph N/A   Mostly Cloudy
12:32 PM 35.6 °F 28.0 °F 32.0 °F 87% 29.89 in 10.0 mi North 10.4 mph 25.3 mph N/A   Overcast
12:53 PM 35.6 °F 26.2 °F 30.2 °F 81% 29.89 in 10.0 mi North 15.0 mph 25.3 mph N/A   Overcast
1:13 PM 35.6 °F 27.1 °F 30.2 °F 81% 29.89 in 10.0 mi North 12.7 mph 21.9 mph N/A   Overcast
1:32 PM 35.6 °F 28.0 °F 30.2 °F 81% 29.90 in 10.0 mi North 10.4 mph 21.9 mph N/A   Mostly Cloudy
1:53 PM 37.4 °F 29.8 °F 30.2 °F 75% 29.90 in 10.0 mi North 11.5 mph 19.6 mph N/A   Mostly Cloudy
2:13 PM 37.4 °F 29.8 °F 30.2 °F 75% 29.90 in 10.0 mi North 11.5 mph 19.6 mph N/A   Mostly Cloudy
2:33 PM 37.4 °F 29.8 °F 30.2 °F 75% 29.89 in 10.0 mi North 11.5 mph 20.7 mph N/A   Overcast
2:53 PM 37.4 °F 30.3 °F 30.2 °F 75% 29.89 in 10.0 mi North 10.4 mph 19.6 mph N/A   Overcast
3:13 PM 37.4 °F 30.3 °F 30.2 °F 75% 29.89 in 10.0 mi North 10.4 mph 19.6 mph N/A   Mostly Cloudy
3:33 PM 37.4 °F 29.8 °F 30.2 °F 75% 29.87 in 10.0 mi North 11.5 mph 20.7 mph N/A   Mostly Cloudy
3:53 PM 39.2 °F 32.0 °F 30.2 °F 70% 29.86 in 10.0 mi North 11.5 mph 23.0 mph N/A   Mostly Cloudy
4:12 PM 39.2 °F 32.5 °F 30.2 °F 70% 29.85 in 10.0 mi North 10.4 mph 21.9 mph N/A   Mostly Cloudy
4:33 PM 39.2 °F 31.6 °F 28.4 °F 65% 29.84 in 10.0 mi North 12.7 mph 20.7 mph N/A   Scattered Clouds
4:53 PM 39.2 °F 30.2 °F 28.4 °F 65% 29.84 in 10.0 mi North 17.3 mph 27.6 mph N/A   Clear
5:12 PM 39.2 °F 31.2 °F 28.4 °F 65% 29.85 in 10.0 mi North 13.8 mph 24.2 mph N/A   Clear
5:33 PM 39.2 °F 32.5 °F 28.4 °F 65% 29.85 in 10.0 mi North 10.4 mph 24.2 mph N/A   Clear
5:53 PM 39.2 °F 32.0 °F 28.4 °F 65% 29.86 in 10.0 mi North 11.5 mph 19.6 mph N/A   Scattered Clouds
6:12 PM 39.2 °F 31.2 °F 28.4 °F 65% 29.87 in 10.0 mi NNE 13.8 mph 19.6 mph N/A   Scattered Clouds
6:33 PM 39.2 °F 32.0 °F 28.4 °F 65% 29.88 in 10.0 mi North 11.5 mph 20.7 mph N/A   Scattered Clouds
7:12 PM 37.4 °F 30.8 °F 28.4 °F 70% 29.87 in 10.0 mi North 9.2 mph 17.3 mph N/A   Clear
7:33 PM 37.4 °F 28.9 °F 26.6 °F 65% 29.86 in 10.0 mi North 13.8 mph 24.2 mph N/A   Clear
7:53 PM 37.4 °F 28.2 °F 26.6 °F 65% 29.86 in 10.0 mi North 16.1 mph 23.0 mph N/A   Mostly Cloudy
8:12 PM 35.6 °F 27.5 °F 26.6 °F 70% 29.87 in 10.0 mi North 11.5 mph 25.3 mph N/A   Overcast
8:33 PM 35.6 °F 26.6 °F 24.8 °F 65% 29.87 in 10.0 mi NNE 13.8 mph 21.9 mph N/A   Scattered Clouds
8:53 PM 35.6 °F 28.0 °F 24.8 °F 65% 29.89 in 10.0 mi North 10.4 mph 19.6 mph N/A   Scattered Clouds
9:12 PM 35.6 °F 28.0 °F 24.8 °F 65% 29.91 in 10.0 mi North 10.4 mph 21.9 mph N/A   Scattered Clouds
9:33 PM 35.6 °F 26.6 °F 24.8 °F 65% 29.89 in 10.0 mi North 13.8 mph 24.2 mph N/A   Clear
9:53 PM 35.6 °F 27.5 °F 23.0 °F 60% 29.91 in 10.0 mi North 11.5 mph 23.0 mph N/A   Clear
10:12 PM 33.8 °F 25.3 °F 23.0 °F 65% 29.92 in 10.0 mi North 11.5 mph 23.0 mph N/A   Clear
10:33 PM 33.8 °F 24.8 °F 23.0 °F 65% 29.92 in 10.0 mi North 12.7 mph 23.0 mph N/A   Clear
10:53 PM 33.8 °F 24.3 °F 24.8 °F 70% 29.93 in 10.0 mi North 13.8 mph 20.7 mph N/A   Mostly Cloudy
11:12 PM 33.8 °F 23.2 °F 24.8 °F 70% 29.93 in 10.0 mi NNW 17.3 mph 27.6 mph N/A   Mostly Cloudy
11:33 PM 32.0 °F 20.1 °F 23.0 °F 69% 29.94 in 10.0 mi North 19.6 mph 29.9 mph N/A   Scattered Clouds
11:53 PM 32.0 °F 19.5 °F 23.0 °F 69% 29.94 in 10.0 mi NNW 21.9 mph 29.9 mph N/A   Clear